Location: Kunchanapalle
(16.4623°N, 80.6176°E)
Time: 09:30:35
(UTC+00:00)

GPS 2-18 Rocket1 - Pass Details

Date: 13 August 2020
Orbit: 459 x 515 km, 20.9° (Epoch: 18 September)

Event Time Altitude Azimuth Distance (km) Brightness Sun altitude
Exits shadow 23:02:46 39° 192° (SSW) 710 3.6 -18.7°
Drops below altitude 10° 23:06:05 10° 129° (SE) 1,601 6.1 -18.0°
Sets 23:08:20 0° 121° (ESE) 2,467 7.2 -17.5°
